Home > Weather > Bethlehem > Past weeks

Flag for Palestinian Territories Weather for the Past 2 Weeks in Bethlehem, West Bank, Palestinian Territories

Now
75 °F

Clear.


Feels Like: 77 °F
Forecast: 58 / 73 °F
Wind: 10 mph from West

Location: Ben Gurion International Airport

Current Time: May 1, 2016 at 3:39:07 PM

Latest Report: May 1, 2016 at 3:20 PM


Visibility: 4 mi

Pressure: 29.77 "Hg (27.30 "Hg at 753m altitude)

Humidity: 65%

Dew Point: 63 °F

Location of BethlehemLocation

Historic Weather in Bethlehem — Graph

°F

Bethlehem Temperature Yesterday

Maximum temperature yesterday: 84 °F (at 2:50 PM)
Minimum temperature yesterday: 59 °F (at 5:50 AM)
Average temperature yesterday: 72 °F

High & Low Weather Summary for the Past Weeks

 TemperatureHumidityPressure
High104 °F (Apr 26, 2:50 PM)94% (Apr 19, 3:20 AM)30.09 "Hg (Apr 19, 3:20 AM)
Low55 °F (Apr 18, 5:20 AM)7% (Apr 20, 11:20 AM)29.56 "Hg (Apr 25, 12:50 AM)
Average74 °F51%29.90 "Hg
* Reported Apr 16 2:20 PM — May 1 2:20 PM, Bethlehem, Weather by CustomWeather, © 2016

Note: Actual official high and low records may vary slightly from our data, if they occured in-between our weather recording intervals... More about our weather records

Advertising

Bethlehem Weather History for the Previous 24 Hours

Scroll right to see more
 ConditionsComfort  
Time TempWeatherWind HumidityBarometerVisibility
2:20 PM
Sun, May 1
79 °FClear.10 mph54%29.80 "Hg4 mi
1:50 PM81 °FClear.12 mph51%29.77 "Hg4 mi
1:20 PM79 °FClear.10 mph58%29.77 "Hg5 mi
12:50 PM77 °FClear.16 mph65%29.77 "Hg5 mi
12:20 PM84 °FSunny.17 mph48%29.77 "Hg10 mi
11:50 AM84 °FSunny.20 mph29%29.77 "Hg10 mi
11:20 AM90 °FSunny.17 mph17%29.77 "Hg10 mi
10:50 AM93 °FSunny.17 mph12%29.74 "Hg10 mi
9:50 AM93 °FSunny.7 mph15%29.74 "Hg10 mi
9:20 AM90 °FSunny.2 mph20%29.74 "Hg10 mi
8:50 AM84 °FSunny.2 mph27%29.74 "Hg10 mi
8:20 AM79 °FSunny.5 mph32%29.74 "Hg10 mi
7:20 AM79 °FSunny.6 mph23%29.71 "Hg10 mi
6:50 AM73 °FClear.7 mph27%29.74 "Hg10 mi
6:20 AM72 °FClear.7 mph33%29.74 "Hg10 mi
5:20 AM68 °FClear.5 mph53%29.74 "Hg10 mi
4:50 AM64 °FClear.3 mph68%29.77 "Hg10 mi
4:20 AM68 °FClear.5 mph56%29.77 "Hg10 mi
3:50 AM68 °FClear.3 mph60%29.77 "Hg10 mi
3:20 AM66 °FClear.3 mph68%29.77 "Hg10 mi
2:50 AM66 °FClear.3 mph68%29.77 "Hg10 mi
2:20 AM68 °FClear.1 mph69%29.80 "Hg10 mi
1:50 AM68 °FClear.5 mph69%29.80 "Hg10 mi
1:20 AM68 °FClear.2 mph73%29.80 "Hg10 mi
12:50 AM66 °FClear.1 mph78%29.83 "Hg10 mi
12:20 AM70 °FClear.3 mph73%29.83 "Hg10 mi
11:50 PM
Sat, Apr 30
70 °FClear.2 mph73%29.83 "Hg10 mi
11:20 PM70 °FClear.3 mph73%29.83 "Hg10 mi
10:50 PM72 °FClear.3 mph69%29.83 "Hg10 mi
10:20 PM70 °FClear.3 mph73%29.86 "Hg10 mi
9:50 PM72 °FClear.6 mph65%29.86 "Hg10 mi
9:20 PM73 °FClear.5 mph61%29.86 "Hg10 mi
8:50 PM73 °FClear.5 mph61%29.86 "Hg10 mi
8:20 PM73 °FClear.3 mph61%29.86 "Hg10 mi
7:50 PM75 °FSunny.5 mph54%29.86 "Hg10 mi
7:20 PM75 °FSunny.5 mph54%29.86 "Hg10 mi
6:50 PM77 °FSunny.5 mph47%29.86 "Hg10 mi
6:20 PM77 °FSunny.7 mph47%29.86 "Hg10 mi
5:50 PM79 °FSunny.9 mph45%29.86 "Hg10 mi
5:20 PM79 °FSunny.10 mph45%29.86 "Hg10 mi
4:50 PM81 °FSunny.12 mph39%29.86 "Hg10 mi
4:20 PM82 °FSunny.10 mph30%29.86 "Hg10 mi
3:50 PM84 °FSunny.9 mph33%29.86 "Hg10 mi
3:20 PM84 °FPassing clouds.8 mph33%29.86 "HgN/A
Weather by CustomWeather, © 2016

See weather overviewHow to use our weather pages